Simultaneous Nadir Overpasses (SNOs) Predictions

Prediction of SNOs between GOES-16 and AQUA Satellite Orbit:

Table of predicted SNOs for the next 14.0 days since TLE Epoch: 2/13/2021
Index Date Time (GOES-16) GOES-16 Lat,Lon AQUA Lat,Lon Distance(km) Time Diff (sec)
1 02/13/2021 18:29:13 0.01, -75.13 0.43, -73.15 224.91 80
2 02/14/2021 06:50:29 -0.01, -75.13 0.66, -78.31 361.99 80
3 02/16/2021 06:38:18 -0.01, -75.14 0.03, -75.35 24.25 80
4 02/18/2021 06:23:27 -0.01, -75.16 -0.60, -72.40 313.95 80
5 02/18/2021 18:44:51 0.02, -75.17 -0.50, -77.59 275.06 80
6 02/20/2021 18:35:20 0.02, -75.19 0.14, -74.63 63.55 80
7 02/22/2021 18:23:09 0.03, -75.22 0.78, -71.68 402.40 80
8 02/23/2021 06:44:25 -0.03, -75.22 0.32, -76.84 183.78 80
9 02/25/2021 06:29:34 -0.04, -75.25 -0.32, -73.88 155.45 80
10 02/25/2021 18:50:58 0.04, -75.26 -0.76, -79.07 433.65 80
